This is the latest recevied weather packets stored in our database for station/object KC5EZZ-2. If no packets are shown the sender has not sent any weather packets the latest 10 day(s).
| Time | Temp. | Humidity | Pressure | Rain* | Wind** | Luminosity | Snow |
|---|---|---|---|---|---|---|---|
| 1787633905 | 28.89° C | - | - | 0 mm | 2.68 m/s, 172° | - | - |
| 1787633602 | 29.44° C | - | - | 0 mm | 2.68 m/s, 180° | - | - |
| 1787633303 | 29.44° C | - | - | 0 mm | 3.58 m/s, 172° | - | - |
| 1787633003 | 29.44° C | - | - | 0 mm | 2.68 m/s, 166° | - | - |
| 1787632700 | 29.44° C | - | - | 0 mm | 3.13 m/s, 173° | - | - |
| 1787632401 | 29.44° C | - | - | 0 mm | 3.13 m/s, 152° | - | - |
| 1787632101 | 29.44° C | - | - | 0 mm | 3.13 m/s, 184° | - | - |
| 1787631799 | 30° C | - | - | 0 mm | 2.68 m/s, 177° | - | - |
| 1787631499 | 30° C | - | - | 0 mm | 3.13 m/s, 180° | - | - |
| 1787631199 | 30° C | - | - | 0 mm | 3.13 m/s, 186° | - | - |
| 1787630896 | 30.56° C | - | - | 0 mm | 2.24 m/s, 152° | - | - |
| 1787630605 | 30.56° C | - | - | 0 mm | 2.68 m/s, 150° | - | - |
| 1787630596 | 30.56° C | - | - | 0 mm | 2.68 m/s, 163° | - | - |
| 1787630296 | 30.56° C | - | - | 0 mm | 2.68 m/s, 150° | - | - |
| 1787629994 | 31.11° C | - | - | 0 mm | 3.13 m/s, 131° | - | - |
| 1787629694 | 31.67° C | - | - | 0 mm | 2.68 m/s, 155° | - | - |
| 1787629395 | 31.67° C | - | - | 0 mm | 2.68 m/s, 143° | - | - |
| 1787629092 | 31.67° C | - | - | 0 mm | 3.58 m/s, 148° | - | - |
| 1787628792 | 32.22° C | - | - | 0 mm | 2.68 m/s, 129° | - | - |
| 1787628493 | 32.22° C | - | - | 0 mm | 2.68 m/s, 143° | - | - |
| 1787628190 | 32.78° C | - | - | 0 mm | 3.13 m/s, 149° | - | - |
| 1787627891 | 32.78° C | - | - | 0 mm | 2.24 m/s, 150° | - | - |
| 1787627591 | 32.22° C | - | - | 0 mm | 1.34 m/s, 141° | - | - |
| 1787627288 | 32.78° C | - | - | 0 mm | 1.79 m/s, 146° | - | - |
| 1787626989 | 32.22° C | - | - | 0 mm | 2.24 m/s, 121° | - | - |
* Rain latest hour (hover to see other rain measurements)
** Current wind speed in m/s (hover to see current wind gust speed)